Wetbulb
75.09 75.78 78.39 74.95 67.64 63.92 58.90 61.89 65.95 63.04 64.23 67.93 68.21 66.77 66.54 67.82 65.30 62.04 74.99 75.30 75.52 74.90 76.06 76.78 78.57 78.82 78.59 78.41 77.69 77.53 77.44 77.17 77.78 77.49 77.22 77.42 77.36 77.27 77.95 77.79 77.63 77.86 78.14 78.35 77.34 77.17 76.67 76.61 76.47
78.05 77.26 76.80 72.16 62.04 57.39 58.44 64.65 62.42 65.66 67.76 69.52 68.05 67.59 67.22 66.69 70.41 71.29 73.27 76.09 75.66 75.80 75.35 75.54 78.76 79.02 78.79 78.85 78.41 78.27 77.46 77.51 78.02 77.85 77.43 76.81 77.02 76.76 77.09 77.09 77.11 77.14 77.28 77.20 77.72 77.79 77.12 77.28 76.23
75.81 77.10 73.27 67.75 62.38 57.54 58.52 64.57 65.20 66.95 68.51 67.51 67.14 69.44 69.51 67.54 71.12 72.39 75.37 76.48 75.72 75.21 75.42 77.14 79.09 79.24 78.79 78.98 78.87 78.74 78.46 77.60 77.35 76.45 76.59 75.66 75.00 75.12 76.72 76.84 76.87 76.87 76.89 76.70 76.70 76.78 77.22 77.28 77.33
74.69 75.53 72.92 59.66 59.69 63.85 63.10 65.02 66.47 66.22 68.20 68.79 68.26 66.71 70.67 72.74 72.25 74.19 76.12 75.73 74.75 75.03 76.71 77.96 78.99 79.02 79.15 78.81 79.09 78.89 78.38 77.84 77.27 76.58 75.57 75.16 74.48 74.09 74.51 75.28 76.28 76.12 76.34 76.42 76.45 76.01 75.81 75.95 76.48
73.59 71.78 63.47 61.68 61.38 63.97 65.74 66.85 67.14 65.65 66.74 67.17 68.37 66.81 67.80 72.36 74.79 74.99 75.86 76.13 75.07 74.99 77.18 77.66 78.53 78.37 78.48 78.78 78.70 78.71 77.75 77.75 76.13 75.12 74.56 74.70 74.28 73.92 73.90 74.12 74.51 75.98 76.17 76.14 76.28 76.03 75.53 75.06 74.82
69.02 69.60 60.12 58.12 60.96 63.97 66.17 67.56 66.85 66.42 67.11 67.53 68.01 68.06 68.83 73.80 73.66 74.47 75.73 75.60 75.34 75.14 76.34 77.09 78.31 78.61 78.54 78.45 77.98 77.56 76.96 75.78 74.42 73.32 73.40 74.62 73.42 72.07 72.53 74.32 73.89 74.70 75.20 75.67 75.11 75.59 74.81 74.67 74.47
66.38 64.39 60.55 60.59 61.13 62.28 65.23 68.04 66.33 65.78 66.04 66.31 68.57 67.30 69.80 71.88 74.19 75.14 75.15 75.66 75.46 75.58 75.79 76.70 76.72 77.91 77.57 78.01 77.31 77.05 76.77 75.86 74.56 73.51 74.09 73.39 72.58 71.47 72.29 74.51 74.25 74.39 74.86 75.01 74.91 75.26 75.06 74.79 74.54
67.63 65.95 60.17 60.75 59.13 61.08 65.35 65.36 67.19 66.61 66.13 70.33 69.95 65.35 67.46 71.68 74.39 75.00 75.08 74.69 75.26 75.00 75.15 76.45 76.76 76.75 77.11 77.29 77.14 76.86 76.85 75.80 74.76 74.32 74.25 73.23 72.90 72.16 72.76 73.21 74.33 74.18 74.87 75.10 75.20 75.14 74.84 74.90 75.06
68.50 61.27 59.19 59.89 60.62 62.63 65.87 64.34 67.59 69.94 68.05 69.49 70.31 70.99 72.06 73.30 74.11 73.58 73.51 74.14 74.44 75.08 75.51 75.78 75.91 76.22 75.65 76.13 77.24 77.79 77.02 76.35 75.41 74.50 74.60 73.27 70.74 71.67 71.78 72.31 73.79 74.20 74.87 75.06 75.13 75.24 75.92 75.78 75.81
63.59 60.18 59.34 63.17 63.87 63.36 65.10 65.28 66.12 67.36 66.73 68.12 70.15 72.24 73.02 72.66 72.83 71.93 71.79 72.06 72.74 73.72 74.34 75.29 75.37 75.52 75.37 75.19 77.60 78.09 78.05 76.23 76.60 74.89 75.15 73.96 71.91 69.65 70.94 72.66 73.58 74.07 74.89 75.73 75.39 75.31 76.12 76.81 75.69
62.82 60.16 61.88 62.50 63.78 64.12 65.00 65.70 67.04 65.63 64.41 67.45 69.08 70.81 71.39 71.69 71.79 71.50 71.59 72.25 72.73 74.13 74.45 74.72 76.51 76.18 73.94 75.28 77.20 77.93 77.54 76.40 76.25 75.43 74.17 75.91 75.92 71.81 71.91 71.52 71.85 72.57 74.20 74.04 74.92 74.64 74.10 74.89 75.40
60.20 61.60 62.64 62.64 63.30 63.78 63.58 65.48 65.01 65.96 67.00 69.77 71.37 72.42 71.56 71.15 70.93 70.97 70.95 71.50 72.52 73.59 74.50 75.00 75.85 76.99 77.13 74.56 75.46 76.33 77.39 77.02 73.84 76.01 75.30 75.30 74.91 75.29 73.48 72.32 72.29 72.52 73.95 74.97 74.35 74.50 76.14 75.67 76.51
60.54 60.33 61.24 62.42 62.73 63.14 65.04 64.06 64.18 65.31 69.29 70.86 72.22 72.24 71.24 71.16 70.94 71.59 72.10 72.66 72.99 73.28 74.30 75.35 76.08 77.15 76.74 78.99 76.52 75.28 75.77 74.36 74.52 76.50 76.01 75.22 73.96 75.37 74.98 74.09 74.25 74.02 75.05 74.17 73.39 73.69 74.53 75.86 74.54
60.70 60.38 60.63 61.43 61.90 62.51 61.60 62.73 64.64 66.05 69.04 70.37 71.50 71.40 71.37 71.22 70.97 71.57 71.96 72.41 73.06 74.10 74.52 75.46 75.85 77.16 77.26 77.15 78.53 76.85 75.50 76.13 74.84 74.41 77.70 76.65 76.88 75.55 76.08 77.13 75.15 75.67 74.69 73.87 74.97 73.98 75.25 74.95 74.19
61.85 59.44 60.33 61.13 61.43 61.23 62.72 61.11 61.44 66.98 68.51 69.40 70.45 71.39 71.44 71.80 72.17 71.59 72.46 72.96 73.77 74.29 75.03 75.62 76.26 76.98 77.37 77.84 76.82 77.37 77.59 74.67 75.24 75.80 74.64 76.92 77.09 76.44 75.39 76.29 77.83 75.51 75.61 73.80 74.97 76.16 75.09 73.74 73.63
59.15 59.76 57.43 59.91 59.84 62.50 61.50 57.10 62.43 66.95 66.95 67.77 69.45 70.45 71.15 72.06 72.40 73.32 73.59 74.00 74.74 74.87 75.17 76.22 76.05 75.96 76.87 77.51 77.36 77.72 77.10 74.97 75.89 75.02 74.93 74.55 76.81 76.88 77.29 76.32 74.57 74.94 76.41 74.13 74.08 73.91 72.81 72.63 73.17
57.61 55.14 54.60 56.42 59.18 58.50 58.96 57.70 62.35 63.27 65.25 65.50 68.32 69.91 70.76 71.46 72.75 73.69 74.37 74.83 75.27 75.86 76.09 76.12 76.61 75.82 76.43 79.05 79.54 77.20 76.58 75.88 73.08 73.44 73.65 75.64 76.75 76.95 76.73 75.01 77.99 77.20 76.56 76.16 74.76 73.36 73.94 73.21 72.91
53.63 54.20 54.40 54.39 57.31 57.56 56.88 56.82 59.32 61.70 63.45 64.66 66.56 68.80 70.41 70.72 71.88 73.85 74.34 75.30 75.64 76.26 77.02 77.42 77.20 76.65 75.04 75.48 80.02 77.96 78.77 76.46 73.21 72.51 72.69 73.58 75.49 75.84 75.39 77.04 78.25 74.87 76.67 75.90 75.61 76.17 75.16 74.21 73.43
55.49 54.99 54.17 55.52 57.29 55.75 56.28 56.80 57.89 60.17 60.45 62.03 64.88 67.24 69.23 70.61 72.48 74.10 74.25 74.95 75.49 76.21 76.84 77.59 77.40 74.81 67.56 71.45 75.00 77.37 75.17 76.35 73.98 74.26 74.66 73.67 75.87 75.59 74.38 72.44 76.25 76.52 77.27 75.03 74.16 74.13 75.51 74.32 75.26
55.52 54.08 54.30 55.42 56.52 56.01 56.32 56.25 58.65 59.80 61.11 62.14 63.41 66.61 68.05 70.07 71.73 73.12 73.98 73.50 74.79 75.78 76.91 77.80 77.61 75.61 73.52 74.11 76.42 76.21 75.30 75.03 75.38 76.73 75.14 76.24 76.32 73.89 73.08 71.65 72.77 76.26 77.33 76.77 75.44 76.45 75.11 76.30 76.20
55.60 53.92 53.76 53.52 55.77 57.53 56.99 56.72 59.06 61.84 63.37 64.33 64.44 67.22 67.93 69.70 70.94 72.64 73.30 73.45 74.22 75.44 76.32 77.41 78.37 78.54 77.17 77.71 76.90 78.77 79.30 77.18 75.17 75.04 75.01 75.98 74.47 73.48 73.77 73.12 73.15 74.07 74.76 73.68 75.88 76.42 72.94 74.20 74.94
53.34 56.47 54.99 54.16 54.16 52.60 57.33 50.08 57.85 60.61 61.81 63.01 64.17 65.68 66.84 68.68 70.96 72.49 73.09 73.76 74.01 74.48 75.69 77.12 78.33 79.00 78.70 79.37 78.28 79.40 75.65 73.95 76.08 75.21 76.65 75.39 76.71 75.50 76.47 74.37 74.04 74.49 73.94 72.88 75.87 76.04 75.20 76.22 74.47
54.51 56.75 55.52 55.04 54.47 54.95 55.14 53.88 56.29 60.49 60.62 62.56 64.69 65.41 65.54 67.90 69.89 71.12 72.37 74.09 75.03 74.93 73.94 76.26 78.18 79.12 79.91 79.31 79.81 78.63 77.54 75.60 75.62 75.15 76.14 76.83 76.69 77.08 76.61 76.82 76.94 77.77 74.44 73.72 73.08 74.44 76.94 76.04 73.96
57.68 55.71 56.25 56.37 54.84 50.96 54.05 53.67 53.03 58.11 60.84 62.34 64.78 66.53 67.84 67.97 68.17 71.15 72.63 73.47 74.97 75.25 74.31 74.96 77.43 78.35 79.10 78.81 78.83 78.98 77.95 77.37 75.24 75.47 75.18 74.93 74.78 75.99 76.71 76.83 76.68 75.21 75.17 77.20 77.07 77.48 77.03 76.40 75.58
56.40 54.21 50.17 50.25 50.10 48.51 55.52 52.76 56.43 60.69 62.77 63.94 64.77 66.78 68.37 69.29 68.64 69.49 71.79 72.24 74.34 75.16 75.34 75.59 76.75 77.46 78.66 78.36 78.64 78.94 79.33 78.40 77.54 76.86 75.17 75.63 73.52 74.03 76.21 78.66 78.02 76.55 78.62 77.29 78.63 78.29 77.87 76.94 75.03
56.27 55.09 50.94 46.67 47.91 49.45 55.25 52.28 56.77 61.63 63.25 65.42 66.79 68.81 69.47 70.26 71.35 71.46 71.90 73.02 74.01 75.15 76.15 76.40 77.49 77.83 77.94 78.00 78.62 79.93 79.55 78.85 77.58 77.75 76.17 75.07 74.56 74.54 78.73 77.50 77.87 77.79 77.17 77.14 77.00 74.76 76.29 77.29 75.32
56.10 53.45 57.26 52.38 53.48 50.61 53.87 55.74 58.58 61.04 61.26 64.32 65.70 68.67 69.29 70.79 71.93 72.88 73.71 74.26 74.90 75.21 76.14 76.77 77.20 77.90 78.45 77.91 78.71 78.79 79.23 78.79 78.65 80.56 78.99 76.91 77.98 76.14 78.44 77.54 77.26 77.82 77.68 77.26 78.14 74.86 73.95 77.29 76.96
57.38 58.85 53.20 55.00 48.51 48.10 51.33 52.88 54.84 59.21 59.13 63.03 64.00 67.80 69.45 70.43 72.13 72.28 72.84 73.24 74.62 75.45 75.99 76.59 76.80 77.18 77.38 77.73 77.58 77.14 75.72 78.62 78.82 78.90 78.43 78.60 78.16 77.97 77.90 77.17 76.71 77.20 77.36 76.84 77.22 76.92 76.79 76.80 76.93
55.94 54.64 55.67 55.29 53.96 49.57 48.60 50.69 59.48 59.16 61.58 61.57 63.44 67.60 68.81 70.79 70.19 70.36 70.85 71.88 73.25 74.03 74.06 74.72 75.37 75.86 76.37 77.08 76.68 75.40 75.31 76.58 77.71 77.65 78.50 77.90 78.21 78.11 77.70 78.15 77.13 76.27 76.04 76.21 76.62 75.77 75.38 75.57 76.29
58.09 56.19 56.32 52.69 51.67 53.85 52.81 52.63 61.93 61.82 61.73 63.09 63.45 66.04 69.48 70.53 70.23 70.18 70.97 71.65 72.05 71.97 72.95 73.15 73.95 73.91 75.02 76.22 78.00 76.70 77.70 77.72 77.00 77.45 77.70 75.50 73.48 77.84 78.38 77.82 76.95 76.37 75.17 75.67 73.66 73.19 75.14 74.75 74.23
MSLP
1006.22 1005.63 1004.49 1003.88 1003.79 1002.65 1002.21 1001.89 1002.18 1002.22 1001.40 1001.70 1002.16 1002.24 1002.89 1004.13 1004.69 1005.99 1007.37 1008.65 1009.55 1010.76 1012.09 1012.70 1013.30 1013.56 1013.92 1014.34 1014.82 1015.08 1015.26 1015.51 1015.75 1016.07 1016.22 1016.52 1016.75 1016.82 1016.90 1016.88 1016.91 1017.05 1017.12 1017.37 1017.49 1017.49 1017.58 1017.65 1017.70
1004.71 1004.41 1004.10 1003.00 1003.62 1002.61 1002.37 1002.26 1001.95 1001.76 1001.85 1002.14 1002.50 1002.28 1003.33 1004.66 1005.48 1006.51 1007.22 1008.65 1009.59 1010.50 1011.67 1012.48 1013.46 1013.72 1014.10 1014.47 1014.93 1015.31 1015.51 1015.74 1015.99 1016.39 1016.62 1016.97 1017.14 1017.15 1017.28 1017.39 1017.44 1017.54 1017.58 1017.61 1017.68 1017.84 1017.89 1018.00 1018.11
1004.90 1003.98 1002.90 1001.76 1002.18 1002.34 1002.49 1002.02 1001.96 1001.76 1002.03 1001.95 1002.52 1003.36 1003.93 1005.78 1006.49 1006.93 1007.78 1008.98 1009.65 1010.45 1011.17 1012.84 1013.67 1013.97 1014.25 1014.48 1014.96 1015.25 1015.54 1015.93 1016.24 1016.74 1016.93 1017.05 1017.55 1017.74 1017.67 1017.73 1017.83 1017.94 1017.95 1017.92 1017.97 1018.15 1018.22 1018.27 1018.33
1003.38 1002.78 1002.16 1002.67 1002.25 1002.21 1002.05 1002.15 1001.90 1001.99 1002.10 1002.36 1002.59 1004.39 1005.89 1006.31 1006.59 1007.48 1008.17 1009.56 1010.26 1011.00 1011.47 1013.34 1013.77 1014.15 1014.52 1014.76 1015.07 1015.41 1015.51 1015.87 1016.26 1016.71 1017.25 1017.45 1017.84 1018.30 1018.59 1018.35 1018.16 1018.29 1018.30 1018.28 1018.20 1018.31 1018.47 1018.50 1018.47
1002.49 1000.59 1000.87 1001.37 1002.73 1002.72 1002.36 1002.23 1001.97 1001.93 1002.23 1002.93 1003.20 1004.79 1006.18 1006.95 1007.18 1008.17 1008.40 1009.59 1010.37 1011.40 1011.87 1013.22 1013.88 1014.21 1014.61 1015.04 1015.31 1015.56 1015.87 1016.14 1016.41 1016.71 1016.97 1017.83 1018.34 1018.55 1019.01 1019.07 1018.78 1018.46 1018.50 1018.53 1018.41 1018.43 1018.56 1018.58 1018.61
1000.93 1000.13 1000.63 1001.38 1002.17 1002.30 1002.32 1002.11 1001.90 1001.97 1002.35 1003.04 1003.98 1005.16 1006.45 1007.41 1007.85 1008.40 1008.51 1009.01 1010.62 1011.34 1011.54 1013.18 1014.11 1014.39 1014.70 1015.08 1015.41 1015.72 1016.03 1016.35 1016.72 1016.82 1017.02 1017.82 1018.52 1019.11 1019.07 1019.15 1019.10 1018.89 1018.65 1018.65 1018.65 1018.60 1018.69 1018.67 1018.67
1000.01 999.95 1000.39 1001.36 1001.92 1002.51 1002.51 1002.25 1001.82 1002.06 1002.21 1002.89 1003.44 1004.55 1006.66 1007.35 1007.96 1008.27 1008.48 1008.87 1009.90 1010.52 1011.25 1012.73 1013.72 1014.49 1014.88 1015.17 1015.40 1015.63 1015.96 1016.35 1016.81 1017.01 1017.28 1017.73 1018.25 1019.15 1019.23 1019.30 1019.10 1019.05 1018.98 1018.74 1018.70 1018.71 1018.77 1018.74 1018.62
999.83 999.37 1000.03 1001.02 1001.92 1002.68 1002.75 1002.68 1002.81 1002.37 1003.09 1003.39 1003.46 1005.10 1005.98 1007.00 1007.78 1007.97 1008.23 1008.87 1009.50 1010.25 1011.35 1012.17 1013.05 1014.00 1014.51 1015.09 1015.55 1015.68 1015.96 1016.41 1016.85 1017.15 1017.46 1017.88 1018.27 1018.87 1019.08 1019.25 1019.08 1019.01 1018.98 1018.75 1018.62 1018.66 1018.72 1018.66 1018.52
999.75 999.20 999.96 1000.70 1001.43 1002.28 1002.32 1002.39 1002.79 1003.04 1002.66 1003.56 1003.98 1003.75 1005.31 1006.90 1007.67 1007.83 1008.31 1008.81 1009.44 1010.21 1010.83 1011.39 1012.38 1013.23 1013.73 1014.23 1015.14 1015.73 1016.01 1016.37 1016.80 1017.22 1017.59 1017.96 1018.27 1018.79 1018.85 1018.97 1019.00 1018.98 1018.90 1018.75 1018.58 1018.52 1018.48 1018.39 1018.36
998.92 1000.10 1000.66 1000.86 1001.14 1001.75 1002.19 1002.23 1002.26 1001.83 1001.84 1003.11 1004.23 1005.05 1006.02 1006.95 1007.52 1007.76 1008.26 1008.80 1009.48 1010.03 1010.56 1011.01 1011.68 1012.58 1013.19 1013.77 1014.67 1015.33 1015.83 1016.20 1016.57 1016.86 1017.33 1017.44 1018.21 1018.73 1018.75 1018.48 1018.59 1018.82 1018.64 1018.60 1018.43 1018.25 1018.06 1017.95 1017.44
999.68 1000.36 1000.64 1001.31 1001.44 1001.53 1001.71 1001.58 1001.55 1001.48 1001.79 1002.53 1003.79 1005.34 1006.37 1006.90 1007.38 1007.68 1008.21 1008.87 1009.45 1010.29 1010.48 1010.82 1011.65 1012.32 1013.33 1013.86 1014.75 1015.29 1015.73 1016.10 1016.20 1016.70 1017.14 1017.51 1017.85 1018.23 1018.45 1018.31 1018.18 1018.14 1017.99 1017.85 1017.62 1017.39 1017.22 1016.92 1017.06
999.71 1000.61 1000.75 1001.26 1001.55 1001.35 1001.21 1001.60 1001.28 1001.90 1002.59 1002.72 1003.68 1005.22 1005.92 1006.51 1006.88 1007.22 1007.75 1008.55 1009.32 1010.17 1010.46 1010.78 1011.87 1012.51 1012.95 1013.86 1014.08 1014.56 1015.18 1015.74 1016.28 1016.30 1016.60 1017.32 1017.59 1017.71 1017.31 1017.33 1016.98 1017.31 1016.72 1016.85 1016.69 1016.43 1016.50 1016.64 1016.89
999.76 1000.49 1000.45 1000.99 1001.14 1000.92 1001.32 1001.44 1001.59 1001.38 1002.35 1002.80 1003.93 1005.02 1005.54 1006.02 1006.51 1006.85 1007.33 1008.13 1009.20 1010.05 1010.42 1010.59 1011.68 1012.66 1012.98 1013.49 1013.61 1014.25 1014.76 1015.67 1016.19 1016.31 1016.46 1016.54 1016.81 1017.24 1017.33 1016.83 1016.17 1016.42 1016.86 1016.76 1016.31 1016.36 1016.44 1016.92 1016.74
1000.43 1000.56 1000.03 1000.21 1000.56 1000.68 1000.83 1000.81 1001.27 1001.14 1001.72 1002.69 1003.72 1004.44 1005.10 1005.57 1005.99 1006.56 1007.09 1007.68 1008.67 1009.50 1009.99 1010.55 1011.56 1012.42 1012.93 1013.47 1014.21 1014.22 1014.03 1014.25 1015.60 1016.16 1016.15 1016.13 1016.08 1016.33 1016.67 1016.92 1016.74 1016.95 1017.04 1016.72 1015.93 1016.15 1016.52 1016.43 1015.87
1000.42 999.95 999.63 1000.01 1000.40 1000.49 1000.47 1000.16 1000.23 1000.92 1001.55 1002.35 1003.14 1003.74 1004.37 1005.01 1005.63 1006.14 1006.72 1007.39 1008.20 1008.95 1009.39 1010.18 1011.06 1011.95 1012.83 1013.31 1013.67 1013.48 1013.65 1014.22 1015.06 1015.66 1015.91 1015.83 1015.53 1015.84 1016.13 1016.55 1016.60 1016.26 1015.98 1016.55 1015.73 1016.05 1016.26 1016.22 1015.48
999.57 999.77 999.12 999.95 1000.34 1000.47 1000.48 999.48 999.71 1000.60 1001.20 1001.52 1002.44 1003.23 1003.76 1004.43 1005.09 1005.69 1006.41 1007.09 1007.71 1008.23 1008.92 1009.98 1010.50 1011.24 1012.24 1012.54 1012.88 1013.24 1013.65 1014.45 1015.17 1015.41 1015.90 1015.62 1015.76 1015.48 1015.69 1016.26 1016.07 1015.87 1015.86 1015.55 1015.70 1015.74 1015.80 1015.88 1015.38
998.94 998.63 999.46 999.60 1000.17 1000.12 1000.06 999.55 999.40 999.99 1000.35 1000.66 1001.58 1002.25 1003.11 1003.83 1004.38 1005.19 1005.88 1006.62 1007.14 1007.99 1008.69 1009.54 1010.26 1011.05 1012.10 1012.55 1013.08 1013.12 1013.27 1014.18 1015.07 1015.05 1015.29 1015.17 1015.49 1015.45 1015.87 1015.98 1015.92 1015.85 1015.52 1015.40 1015.26 1015.20 1015.40 1015.27 1015.39
998.70 998.57 999.23 999.56 999.73 1000.02 999.61 999.22 999.02 998.97 999.41 1000.10 1000.36 1001.23 1002.34 1003.00 1003.66 1004.57 1005.29 1006.07 1006.56 1007.45 1008.37 1009.48 1010.48 1011.71 1011.90 1012.56 1013.13 1013.26 1013.61 1014.16 1014.65 1014.85 1015.13 1015.31 1015.55 1015.51 1015.75 1015.87 1015.61 1015.95 1015.56 1015.78 1015.99 1015.83 1016.00 1015.52 1015.09
999.91 999.58 999.28 999.38 999.62 1000.01 999.55 999.12 998.82 998.70 998.79 999.09 999.88 1000.50 1001.20 1002.13 1002.96 1003.89 1004.98 1005.63 1006.29 1007.00 1007.98 1009.16 1010.38 1011.54 1011.70 1012.50 1012.67 1013.06 1013.32 1013.89 1014.22 1014.15 1014.65 1015.14 1015.08 1015.43 1015.85 1016.16 1015.89 1015.40 1015.67 1015.63 1015.85 1015.95 1015.82 1015.92 1015.36
999.94 999.49 999.07 999.38 999.66 999.78 999.19 998.80 998.69 998.76 999.02 999.23 999.16 999.81 1000.30 1001.24 1002.18 1003.36 1004.48 1005.38 1006.04 1006.69 1007.62 1008.89 1010.14 1011.44 1011.68 1012.15 1012.12 1012.27 1012.80 1013.02 1013.21 1013.47 1014.27 1014.38 1014.45 1015.22 1015.74 1016.07 1016.00 1015.66 1015.62 1015.58 1015.56 1015.69 1016.01 1015.89 1015.20
999.14 998.90 999.66 999.84 999.50 998.86 998.64 998.52 998.62 999.14 999.10 999.18 999.29 999.55 1000.00 1000.69 1001.37 1002.69 1003.68 1004.73 1005.43 1006.36 1007.32 1008.31 1009.07 1010.19 1011.05 1011.18 1011.66 1011.74 1011.60 1012.85 1012.90 1013.17 1013.51 1013.45 1014.08 1014.82 1015.20 1015.53 1015.51 1015.50 1015.39 1015.52 1015.69 1015.65 1015.66 1015.69 1015.05
999.12 999.75 999.97 999.78 999.08 997.82 998.48 999.82 998.61 998.82 999.02 998.95 999.21 999.39 999.71 1000.27 1001.04 1001.84 1002.76 1003.93 1004.80 1005.95 1007.04 1007.92 1008.79 1009.50 1010.31 1010.49 1010.73 1011.02 1011.50 1011.87 1012.26 1012.19 1012.60 1013.12 1013.13 1013.49 1013.78 1013.90 1014.76 1014.99 1015.10 1015.38 1015.43 1015.33 1015.30 1015.32 1015.16
999.74 1000.03 1000.10 999.88 999.15 998.07 997.86 998.48 999.21 998.65 998.60 998.80 999.08 999.43 999.32 999.41 1000.13 1001.01 1002.13 1003.05 1004.14 1005.17 1006.70 1007.51 1008.41 1009.08 1009.53 1010.15 1010.56 1010.81 1010.96 1010.88 1011.22 1011.70 1012.01 1012.66 1012.77 1012.55 1012.85 1013.19 1013.71 1014.36 1014.70 1014.90 1015.08 1015.02 1014.95 1015.04 1014.45
1000.14 999.97 999.57 999.01 998.62 997.75 997.70 998.04 999.70 997.98 998.77 999.08 999.37 999.56 999.94 999.60 999.48 1000.22 1001.35 1002.58 1003.73 1004.75 1006.35 1007.38 1008.25 1008.95 1009.43 1009.79 1010.32 1010.33 1010.49 1010.73 1010.50 1011.06 1011.50 1011.54 1011.85 1011.81 1012.32 1012.44 1013.01 1013.39 1013.97 1013.94 1014.28 1014.34 1014.30 1014.13 1014.00
999.61 998.80 998.08 997.83 997.24 998.39 997.82 998.03 998.89 998.68 999.14 999.39 999.68 999.86 1000.27 1000.06 1000.19 1000.57 1001.30 1002.26 1003.53 1004.28 1005.26 1006.20 1007.63 1008.69 1009.17 1009.55 1009.84 1010.16 1010.37 1010.51 1010.47 1010.67 1010.65 1010.68 1010.80 1010.51 1011.11 1011.75 1012.39 1012.69 1013.08 1013.38 1013.67 1014.01 1013.79 1013.86 1013.95
998.30 997.99 997.44 996.83 997.22 998.12 997.72 997.90 998.78 999.06 999.22 999.62 999.86 1000.48 1000.90 1001.08 1001.55 1001.86 1002.27 1002.75 1003.52 1004.38 1005.13 1005.88 1006.68 1007.99 1008.63 1009.12 1009.42 1009.70 1009.86 1009.95 1010.04 1009.95 1009.72 1009.59 1009.46 1009.41 1010.12 1010.85 1011.26 1012.00 1012.32 1012.67 1013.15 1013.61 1013.74 1013.55 1013.70
997.90 998.14 997.61 997.15 997.07 997.62 997.45 997.79 998.13 999.05 999.23 999.95 1000.23 1000.86 1001.86 1002.17 1002.75 1003.33 1003.73 1004.08 1004.23 1004.81 1005.31 1006.10 1006.78 1007.36 1008.20 1008.55 1008.89 1009.16 1009.53 1009.58 1009.15 1009.09 1009.40 1009.40 1009.39 1009.28 1009.49 1009.97 1010.72 1011.36 1011.61 1011.85 1012.28 1012.76 1013.37 1013.37 1013.35
998.68 998.71 997.76 997.81 997.77 997.67 997.93 997.98 998.20 999.34 999.70 1000.16 1000.78 1001.75 1002.60 1003.62 1004.54 1005.03 1005.33 1005.30 1005.13 1005.24 1005.61 1006.32 1006.87 1007.62 1008.00 1008.06 1008.40 1008.71 1009.09 1009.18 1009.21 1009.28 1009.53 1009.41 1009.42 1009.72 1009.76 1010.13 1010.47 1010.91 1011.29 1011.41 1011.80 1012.18 1012.65 1012.76 1012.98
998.65 998.51 998.29 997.86 998.25 998.02 998.19 998.94 999.65 1000.07 1000.56 1001.06 1001.41 1002.49 1003.16 1003.64 1005.02 1005.64 1005.99 1006.33 1006.28 1006.02 1006.09 1006.18 1006.64 1007.00 1007.28 1007.36 1008.12 1008.71 1008.51 1008.62 1008.83 1008.81 1009.13 1009.46 1009.46 1009.84 1009.94 1009.91 1010.09 1010.33 1010.66 1010.82 1011.23 1011.73 1011.99 1012.22 1012.39
998.68 998.50 998.63 998.19 998.61 998.89 999.09 999.25 1000.44 1000.83 1001.20 1002.17 1002.49 1002.95 1003.94 1004.78 1005.25 1005.80 1006.23 1006.69 1006.93 1007.10 1007.14 1006.98 1007.52 1007.10 1007.40 1006.89 1006.93 1007.19 1007.64 1008.10 1008.36 1008.59 1008.82 1009.13 1009.62 1009.64 1009.96 1009.72 1009.96 1010.00 1010.21 1010.41 1010.84 1011.24 1011.41 1011.50 1011.92
Wind_Speed
9 11 8 5 6 4 9 10 15 5 6 14 7 14 17 17 12 6 21 18 23 21 18 17 15 15 18 16 16 17 16 15 15 14 14 14 14 12 13 14 14 14 13 14 14 14 13 13 12
15 3 7 5 3 1 7 12 12 14 11 9 10 3 16 16 11 19 15 22 21 19 18 18 14 15 19 17 17 16 16 15 14 13 13 12 11 11 11 11 12 12 12 11 11 12 12 12 11
13 7 10 5 5 5 6 12 9 8 8 8 9 13 12 12 19 14 19 22 18 18 16 18 15 16 19 18 17 18 17 16 15 13 13 15 13 10 7 9 9 10 10 10 10 9 9 10 9
7 7 7 6 13 10 10 6 6 8 11 6 6 16 10 18 11 19 20 23 16 14 17 16 16 16 16 17 18 17 19 18 17 17 15 15 14 11 12 3 6 7 8 8 9 8 7 6 6
12 9 4 8 13 8 8 6 5 9 7 15 15 17 17 10 16 20 19 23 18 15 18 17 15 16 15 16 17 17 17 18 21 21 20 14 12 11 7 8 2 5 5 5 6 6 4 4 4
9 4 3 9 11 7 8 3 3 8 6 15 18 16 12 12 20 18 15 23 18 15 19 17 15 15 16 16 17 17 18 17 16 17 17 17 12 6 7 9 7 3 1 3 3 3 3 2 2
4 4 9 8 12 11 8 7 11 6 8 12 5 16 12 16 18 18 15 15 23 19 18 16 15 14 16 15 16 17 18 17 15 16 17 16 16 4 10 10 8 6 4 2 2 2 2 2 2
6 3 10 7 14 14 4 11 4 11 12 4 6 6 16 19 19 16 17 15 16 16 13 16 15 15 14 14 16 17 17 16 14 15 17 16 15 13 16 11 11 6 5 4 3 3 3 3 3
9 4 8 13 12 12 4 11 8 2 8 9 2 11 20 22 20 17 15 14 13 15 15 16 16 15 14 14 14 15 17 17 16 15 16 16 6 8 14 14 11 7 7 6 4 4 5 6 7
8 8 9 7 13 10 7 8 2 3 6 12 12 13 19 22 19 17 16 16 15 13 14 14 15 14 11 10 14 12 11 10 10 10 14 10 12 9 12 16 12 11 9 10 9 9 10 10 7
8 8 7 6 10 5 6 7 3 6 14 12 13 14 18 20 18 18 16 16 14 13 11 14 11 12 12 3 9 6 5 5 5 13 6 9 8 10 10 7 10 10 14 9 13 12 9 3 5
12 8 5 4 5 2 5 4 7 7 7 9 15 17 18 18 18 18 16 16 15 15 13 14 11 8 8 9 7 9 8 6 2 7 13 7 5 8 9 8 11 9 8 9 8 4 2 5 4
8 5 5 7 1 1 6 0 6 3 8 11 16 16 17 16 17 16 15 16 15 15 13 11 13 11 9 4 3 7 7 7 6 5 8 9 10 7 6 9 8 5 7 6 6 6 5 2 9
2 2 5 5 4 1 3 3 2 10 10 13 15 16 16 16 16 15 14 14 15 15 15 13 12 12 10 8 7 5 6 11 9 5 8 12 9 8 8 6 8 7 6 7 8 7 4 8 8
7 11 4 8 6 4 6 10 6 10 9 12 13 14 15 15 16 16 15 14 15 14 15 13 14 14 11 9 11 7 2 7 8 6 7 10 10 3 8 7 6 9 8 10 6 4 5 8 8
10 8 3 10 2 6 10 1 12 11 7 12 13 13 13 16 17 15 16 14 15 14 13 13 12 12 14 10 8 3 4 5 6 5 4 7 8 9 7 4 5 7 4 7 8 7 8 8 8
6 7 5 5 3 5 4 10 6 4 8 7 11 16 13 14 16 15 16 15 16 13 14 14 13 11 6 9 6 8 5 8 4 3 4 6 8 7 3 6 5 7 5 5 5 7 6 7 5
9 8 5 2 4 8 11 7 6 7 11 9 9 13 15 15 16 17 15 16 14 15 14 14 11 5 4 5 5 6 4 5 5 5 7 6 6 5 6 6 7 5 7 5 7 5 4 7 3
5 9 9 4 3 5 11 10 8 7 3 8 9 12 17 16 15 16 16 14 15 14 15 13 14 9 3 3 8 6 7 7 8 7 8 9 8 5 1 4 9 9 5 9 7 9 6 6 5
10 8 6 3 3 8 9 8 5 4 3 3 6 11 15 16 17 16 17 14 14 15 15 15 14 14 9 8 10 6 6 10 9 8 8 10 10 7 5 6 8 10 4 9 5 6 3 5 1
15 2 10 11 10 14 8 9 9 8 4 6 5 10 13 15 17 17 18 17 16 14 14 16 15 16 15 15 8 6 4 6 6 5 8 12 7 12 12 11 11 9 6 5 6 5 6 6 4
15 10 8 10 13 5 2 3 10 10 12 10 12 12 13 14 16 17 18 18 16 15 12 14 15 15 14 15 12 9 8 7 7 6 5 5 11 11 15 13 11 11 4 5 5 8 7 7 5
12 7 8 9 13 13 9 6 8 15 12 8 7 3 6 14 16 16 16 17 17 14 12 14 14 14 13 13 12 9 9 7 6 8 9 7 8 10 11 9 11 10 8 9 7 8 9 6 8
10 10 15 12 12 9 5 6 3 7 9 6 4 2 2 6 6 13 15 14 15 16 13 12 13 12 12 10 12 11 9 9 6 7 6 8 9 11 12 13 9 10 9 11 9 11 10 8 6
10 18 10 10 8 6 7 8 10 9 9 9 5 7 6 1 5 5 9 13 13 14 16 14 13 10 10 9 10 11 11 9 8 7 9 9 9 5 13 11 9 10 9 10 9 9 10 8 8
14 16 8 6 7 9 6 4 5 6 5 7 6 11 7 8 7 7 3 6 11 10 10 10 11 10 10 10 11 9 10 8 9 11 9 10 8 7 5 11 11 11 13 11 10 5 6 9 10
9 9 10 12 8 7 2 7 8 9 6 7 6 13 8 10 11 10 8 1 2 6 7 6 7 7 8 9 8 9 9 11 9 6 10 9 8 7 3 7 8 10 12 12 11 10 8 10 8
15 11 7 5 2 8 7 4 10 7 5 7 6 10 9 8 9 8 7 6 3 2 5 6 5 7 8 8 9 8 5 12 10 12 9 10 8 8 6 8 10 9 10 12 11 10 11 10 7
10 13 9 9 9 8 9 8 7 5 7 4 6 9 5 9 7 6 7 6 6 6 5 0 4 5 7 9 8 9 9 11 11 12 10 10 9 9 10 9 11 11 11 11 11 12 12 12 9
12 15 11 9 6 9 7 4 11 8 7 5 5 4 9 7 6 4 7 6 7 5 6 5 7 4 7 8 9 15 12 9 9 11 12 7 6 8 12 9 11 9 12 9 9 12 12 13 12
Wind_Direction
207 216 244 244 268 224 55 45 78 112 30 72 50 15 61 44 41 82 141 130 133 134 137 143 138 137 140 132 137 134 127 122 112 106 102 95 97 97 97 101 104 101 96 109 106 108 111 116 120
241 196 236 265 234 241 71 82 45 53 65 72 50 166 93 62 94 123 128 136 135 132 150 141 137 135 138 140 138 137 137 127 114 107 100 90 88 95 96 97 99 101 103 103 99 115 112 120 125
260 227 262 223 91 73 63 57 52 75 52 35 99 38 22 94 112 126 122 130 138 141 139 122 138 137 144 142 144 144 145 132 116 97 95 91 56 33 82 94 96 103 108 107 103 102 105 120 121
219 199 234 174 43 43 86 74 88 77 76 69 106 94 79 113 126 120 139 124 137 126 124 131 141 142 147 148 148 149 152 142 134 115 97 88 88 53 349 55 110 108 107 109 109 108 111 116 122
231 262 223 60 96 50 50 35 32 54 50 38 83 89 115 92 116 137 145 138 143 127 130 138 142 146 150 154 151 151 149 144 132 126 114 90 86 78 350 321 322 119 114 112 107 107 109 110 111
255 257 115 83 93 131 79 24 24 82 93 127 119 111 106 124 135 142 155 138 137 152 144 136 141 147 151 159 159 157 158 151 146 145 120 109 88 93 283 321 304 295 154 116 106 123 132 123 129
331 53 61 99 93 64 61 354 30 48 20 57 172 103 127 144 147 150 162 145 151 167 144 150 158 154 155 160 163 167 170 170 160 145 142 137 131 189 240 291 302 280 270 228 163 159 179 162 200
263 234 104 73 76 75 61 79 68 15 63 120 329 183 153 148 157 159 149 157 147 137 144 158 157 166 171 165 174 177 177 170 165 156 158 155 147 201 219 261 259 265 266 258 223 221 237 224 223
229 51 71 70 100 103 147 94 75 43 84 62 333 72 146 147 159 162 152 153 148 151 166 162 161 169 181 174 176 186 181 180 172 170 171 169 161 210 222 237 259 285 267 261 258 253 249 238 231
71 61 65 68 82 96 97 70 67 190 136 109 90 95 133 155 163 164 171 157 169 167 172 163 168 171 179 174 161 188 186 187 181 194 174 198 182 211 229 238 234 253 257 255 248 244 242 232 216
45 59 91 78 53 63 95 133 237 156 42 65 124 139 155 159 169 170 175 166 175 176 184 161 161 172 148 205 163 179 195 183 211 184 173 195 190 202 217 228 232 234 221 241 211 222 234 131 292
106 69 36 41 86 140 46 70 77 24 70 67 109 146 161 168 176 175 178 168 175 182 195 157 171 166 211 158 176 187 183 189 176 228 190 198 190 216 202 211 219 221 253 212 248 254 259 210 231
4 44 126 128 261 277 78 296 18 153 126 108 123 154 164 176 177 179 182 168 178 179 188 171 168 171 206 154 200 183 186 143 219 232 205 196 204 206 213 223 233 233 269 278 236 248 282 273 267
83 269 295 115 126 225 289 321 277 113 134 128 143 157 170 179 178 179 191 179 179 180 181 185 183 173 205 207 205 237 177 178 167 223 216 211 207 206 193 218 217 220 222 268 239 216 258 229 257
285 258 185 72 50 328 311 227 175 103 150 150 161 168 171 181 176 179 189 187 181 181 180 192 189 170 195 177 207 230 272 126 154 153 276 219 231 176 216 207 202 220 214 228 243 225 213 274 239
246 237 266 95 276 120 277 334 113 135 175 163 175 166 175 181 179 185 185 184 174 188 182 193 189 180 182 203 196 192 236 90 118 124 200 269 226 212 201 228 192 236 268 191 222 199 229 231 234
209 150 42 133 146 297 227 318 109 158 163 202 173 167 185 178 189 186 181 190 172 197 175 188 184 185 158 187 181 230 210 127 154 161 223 235 261 223 235 238 194 233 246 266 274 222 243 206 224
48 337 69 284 50 329 296 269 251 228 171 189 187 178 185 182 193 181 194 188 194 177 178 193 168 130 98 10 215 210 248 151 179 214 211 217 239 243 238 241 267 175 247 211 247 266 287 290 288
304 289 318 313 350 280 290 298 264 268 254 190 194 185 181 187 185 177 187 187 194 184 185 187 162 171 184 164 231 211 209 190 200 213 197 199 227 203 273 319 274 226 179 242 206 223 205 241 234
294 276 286 10 32 264 258 288 327 44 20 280 209 186 187 185 179 180 190 171 202 190 183 182 189 189 208 196 224 202 206 191 200 197 191 216 216 129 206 236 270 262 229 237 228 214 199 243 161
270 328 7 329 295 244 257 227 168 115 131 129 203 176 183 183 188 191 191 178 194 187 190 192 192 187 196 209 218 235 255 131 214 177 209 207 161 178 211 206 227 238 233 226 230 240 215 225 266
294 27 331 309 293 359 214 210 139 142 108 102 144 175 174 195 203 191 194 193 193 176 189 192 196 190 195 205 215 195 206 203 208 225 197 190 215 198 211 204 202 219 205 235 216 240 220 255 213
300 5 295 292 276 266 205 93 280 164 105 103 100 81 190 192 195 200 203 190 202 182 173 187 187 195 207 199 235 200 220 206 180 206 191 205 232 213 224 207 208 210 208 215 221 243 227 192 246
283 280 257 232 250 263 101 255 291 344 75 58 119 144 28 284 217 185 182 194 193 183 176 161 174 187 196 194 203 237 211 243 210 203 188 210 210 195 198 215 205 215 202 239 211 232 230 230 265
229 253 250 231 214 137 95 301 131 96 82 53 33 47 60 45 124 182 170 180 188 201 200 183 166 189 186 195 209 216 231 237 227 209 209 245 196 212 175 187 210 220 221 224 216 227 233 210 229
241 276 281 253 274 92 130 107 26 68 84 57 62 86 70 75 88 75 118 185 173 210 201 223 202 187 198 207 219 220 227 226 229 205 238 222 225 194 161 182 198 212 212 219 218 222 235 242 221
233 246 359 313 200 239 62 134 203 106 86 68 60 83 65 71 72 69 64 94 151 199 201 209 234 202 204 218 219 219 222 235 259 262 199 234 246 255 216 221 184 223 232 221 212 217 214 239 234
274 337 255 320 350 287 155 290 87 84 39 54 55 39 118 80 61 67 49 39 58 178 187 200 202 209 217 218 211 220 214 225 236 243 233 255 251 258 236 225 235 214 225 230 221 219 220 228 215
192 233 241 285 319 318 290 107 77 56 45 7 338 97 14 80 106 114 106 87 42 48 39 332 177 236 217 214 209 226 223 218 223 237 229 251 246 238 243 226 233 231 229 224 217 215 215 220 216
298 308 297 272 240 255 315 335 75 58 53 39 338 101 70 345 103 139 100 80 86 54 31 43 349 7 311 303 210 211 199 219 238 245 240 262 264 251 243 229 234 231 232 216 222 213 211 220 207